Lancaster, CA

9:46 AM PDT on October 01, 2016 (GMT -0700)
Gen Fox

Weather History for KWJF - January, 2012

Change the Weather History Date:

Tuesday, January 31, 2012

  Actual Average Record
Temperature  
Mean Temperature 53 °F 46 °F  
Max Temperature 69 °F 60 °F 78 °F (2003)
Min Temperature 37 °F 33 °F 8 °F (1957)
Degree Days  
Heating Degree Days 12    
Month to date heating degree days 591  
Since 1 July heating degree days 1942  
Cooling Degree Days 0    
Month to date cooling degree days 0  
Year to date cooling degree days 0  
Growing Degree Days 3 (Base 50)    
Moisture  
Dew Point 28 °F    
Average Humidity 41    
Maximum Humidity 67    
Minimum Humidity 14    
Precipitation  
Precipitation 0.00 in 0.06 in 0.84 in (1986)
Month to date precipitation 0.10 1.50  
Year to date precipitation 0.10 1.50  
Since 1 July precipitation 1.45  
Snow  
Snow 0.00 in - 9.50 in (1979)
Month to date snowfall 0.0  
Since 1 July snowfall 0.0  
Snow Depth 0.00 in    
Sea Level Pressure  
Sea Level Pressure 30.08 in    
Wind  
Wind Speed 6 mph (West)    
Max Wind Speed 18 mph    
Max Gust Speed 24 mph    
Visibility 9 miles    
Events      
T = Trace of Precipitation, MM = Missing Value Source: NWS Daily Summary

Daily Weather History Graph

Daily Weather History Graph

Search for Another Location

Airport or City:

Trip Planner

Search our weather history database for the weather conditions in past years. The results will help you decide how hot, cold, wet, or windy it might be!

Date:

Astronomy

Jan. 31, 2012 Rise Set
Actual Time 6:52 AM PST 5:20 PM PST
Civil Twilight 6:25 AM PST 5:47 PM PST
Nautical Twilight 5:55 AM PST 6:17 PM PST
Astronomical Twilight 5:25 AM PST 6:47 PM PST
Moon 11:15 AM PST (1/31) 12:43 AM PST (1/31)
Length of Visible Light 11h 21m
Length of Day
10h 28m
First Quarter, 56% of the Moon is Illuminated
Jan 31
First Quarter
Feb 7
Full
Feb 14
Last Quarter
Feb 21
New
Feb 29
First Quarter

Hourly Weather History & Observations

Time (PST) Temp. Windchill Dew Point Humidity Pressure Visibility Wind Dir Wind Speed Gust Speed Precip Events Conditions
12:56 AM 44.1 °F 41.5 °F 19.0 °F 37% 29.99 in 10.0 mi WSW 4.6 mph - N/A   Mostly Cloudy
1:56 AM 45.0 °F 39.3 °F 21.0 °F 39% 29.99 in 10.0 mi West 11.5 mph - N/A   Overcast
2:56 AM 48.9 °F - 25.0 °F 39% 29.99 in 10.0 mi WSW 11.5 mph - N/A   Clear
3:56 AM 46.9 °F - 27.0 °F 46% 29.99 in 10.0 mi West 10.4 mph - N/A   Mostly Cloudy
4:56 AM 41.0 °F 36.4 °F 23.0 °F 49% 30.01 in 10.0 mi Variable 6.9 mph - N/A   Clear
5:56 AM 37.9 °F 32.7 °F 24.1 °F 57% 30.04 in 10.0 mi West 6.9 mph - N/A   Mostly Cloudy
6:56 AM 43.0 °F 41.3 °F 26.1 °F 51% 30.07 in 10.0 mi South 3.5 mph - N/A   Overcast
7:56 AM 44.1 °F 41.5 °F 26.1 °F 49% 30.08 in 10.0 mi West 4.6 mph - N/A   Scattered Clouds
8:56 AM 55.9 °F - 34.0 °F 44% 30.09 in 7.0 mi WNW 9.2 mph - N/A   Clear
9:56 AM 60.1 °F - 33.1 °F 36% 30.10 in 10.0 mi NNW 5.8 mph - N/A   Clear
10:56 AM 62.1 °F - 33.1 °F 34% 30.11 in 10.0 mi Calm Calm - N/A   Clear
11:56 AM 63.0 °F - 30.9 °F 30% 30.10 in 10.0 mi Calm Calm - N/A   Clear
12:56 PM 66.0 °F - 30.0 °F 26% 30.06 in 10.0 mi East 4.6 mph - N/A   Clear
1:56 PM 66.9 °F - 24.1 °F 20% 30.04 in 10.0 mi East 8.1 mph - N/A   Clear
2:56 PM 69.1 °F - 18.0 °F 14% 30.03 in 10.0 mi ESE 4.6 mph - N/A   Clear
3:56 PM 66.9 °F - 21.9 °F 18% 30.04 in 10.0 mi Calm Calm - N/A   Clear
4:56 PM 63.0 °F - 23.0 °F 22% 30.07 in 10.0 mi West 10.4 mph - N/A   Clear
5:56 PM 55.9 °F - 37.0 °F 49% 30.12 in 10.0 mi WSW 10.4 mph - N/A   Clear
6:56 PM 53.1 °F - 37.9 °F 57% 30.15 in 6.0 mi West 15.0 mph - N/A   Haze
7:56 PM 52.0 °F - 37.0 °F 57% 30.16 in 7.0 mi WNW 11.5 mph - N/A   Clear
8:56 PM 50.0 °F - 36.0 °F 59% 30.16 in 8.0 mi WNW 3.5 mph - N/A   Clear
9:56 PM 46.9 °F - 33.1 °F 59% 30.17 in 10.0 mi West 3.5 mph - N/A   Clear
10:56 PM 42.1 °F 39.2 °F 32.0 °F 67% 30.19 in 9.0 mi East 4.6 mph - N/A   Clear
11:56 PM 39.9 °F - 30.9 °F 70% 30.19 in 8.0 mi Calm Calm - N/A   Clear